[[{"header":{"parameterUnit":"m.s-1","parameterCategory":1,"la1":30.2991,"la2":30.254,"lo1":-89.0895,"lo2":-89.0444,"dy":0.0017,"dx":0.0017,"nx":28,"ny":28,"refTime":"2023-10-17T09:00:00:Z","depth":0,"parameterNumber":2,"parameterNumberName":"U-component_of_WINDS"},"data":[0,0,0,0,0,0,0,0,0,0,0,0,0,0,0,0,0,0,0,0,0,0,0,0,0,0,0,0,0,0,0,0,0,0,0,0,0,0,0,0,0,0,0,0,0,0,0,0,0,0,0,0,0,0,0,0,0,0,0.5236,0.5236,0,0.5193,0.5193,0.5193,0.5148,0.5148,0.5147,0.5147,0.5101,0.51,0.51,0,0,0,0,0,0,0,0,0,0,0,0,0,0.5278,0.5278,0.5236,0.5236,0.5235,0.5194,0.5193,0.5192,0.5149,0.5148,0.5147,0.5146,0.5101,0.51,0.51,0,0,0,0,0,0,0,0,0,0,0,0,0,0.525,0.5278,0.5237,0.5209,0.5206,0.5194,0.5193,0.5192,0.5149,0.5148,0.5147,0.5146,0.5101,0.51,0.5099,0.5111,0,0,0.5096,0.5096,0,0,0,0,0,0,0,0,0.5252,0.5249,0.5213,0.521,0.5207,0.5175,0.5191,0.5165,0.5149,0.517,0.5147,0.5146,0.5126,0.5123,0.5117,0.5109,0.5107,0.5096,0.5096,0.5095,0.5095,0,0,0,0,0,0,0,0.5254,0.525,0.5219,0.5213,0.5209,0.5197,0.5192,0.5186,0.5154,0.5168,0.5165,0.5161,0.5124,0.5118,0.5116,0.5106,0.5096,0.5095,0.5095,0.5094,0.5104,0.5105,0,0,0,0,0,0,0.526,0.5252,0.5221,0.5218,0.5228,0.5197,0.5192,0.5186,0.5154,0.5148,0.5161,0.5159,0.512,0.5117,0.5114,0.5124,0.5095,0.5094,0.5094,0.5103,0.5104,0.5105,0,0,0,0,0,0,0.5262,0.5258,0.5222,0.5234,0.5229,0.5198,0.5192,0.5186,0.518,0.5149,0.5142,0.5161,0.5119,0.5115,0.5112,0.5122,0.5094,0.5093,0.5102,0.5104,0.5105,0.5146,0,0,0,0,0,0,0.5263,0.5259,0.5263,0.5235,0.5228,0.5222,0.5193,0.5186,0.5178,0.5174,0.5146,0.5141,0.5118,0.5114,0.5111,0.512,0.5092,0.5101,0.5103,0.5104,0.5143,0.5148,0.5152,0,0,0,0,0,0.5265,0.5276,0.5264,0.526,0.5234,0.5223,0.5219,0.5193,0.5179,0.5183,0.5163,0.5142,0.5122,0.5114,0.511,0.5119,0.51,0.5102,0.5104,0.5141,0.5147,0.5152,0,0,0,0,0,0,0.5307,0.5272,0.5258,0.5261,0.5245,0.5215,0.5219,0.5201,0.5188,0.5185,0.5153,0.5147,0.5147,0.5133,0.5125,0.5128,0.5108,0.5109,0.5137,0.5143,0.5147,0.515,0.5091,0,0,0,0,0,0.5316,0.5311,0.5281,0.5287,0.528,0.5251,0.5245,0.5227,0.5209,0.5202,0.5182,0.5164,0.5154,0.5148,0.5137,0.5141,0.5134,0.5146,0.515,0.5154,0.5155,0.5155,0.516,0.5112,0.5112,0.5111,0,0,0.5336,0.5317,0.5315,0.5295,0.528,0.5274,0.5246,0.5241,0.5236,0.5201,0.5196,0.5181,0.516,0.516,0.5159,0.5148,0.5167,0.5157,0.516,0.5159,0.5158,0.5162,0.5166,0.5113,0.5113,0.5112,0,0,0.5369,0.5354,0.5357,0.5343,0.5322,0.5303,0.5303,0.5276,0.5265,0.526,0.5233,0.5227,0.521,0.5195,0.5186,0.5213,0.5192,0.521,0.5233,0.5234,0.5237,0.5241,0.5249,0.5252,0.5211,0.5212,0.5212,0,0.5396,0.5387,0.536,0.5357,0.5348,0.5317,0.5318,0.5306,0.5282,0.5276,0.5265,0.5242,0.5226,0.5222,0.5228,0.5222,0.5221,0.5212,0.5239,0.5242,0.5245,0.5252,0.5255,0.5214,0.5214,0.5213,0.5213,0,0.542,0.5414,0.5419,0.5397,0.5388,0.5388,0.536,0.5355,0.5338,0.532,0.5314,0.5294,0.5277,0.5275,0.5258,0.5268,0.5262,0.5245,0.5224,0.5252,0.5258,0.5261,0.5217,0.5216,0.5215,0.5215,0,0,0.5477,0.5441,0.5443,0.5432,0.5406,0.54,0.5398,0.5382,0.5378,0.5363,0.5359,0.5345,0.5329,0.5318,0.5299,0.53,0.5321,0.5283,0.5282,0.5289,0.5329,0.5341,0.5344,0.5308,0.5308,0.5308,0.533,0,0.5504,0.5498,0.5474,0.5475,0.5469,0.5439,0.5437,0.542,0.5403,0.5394,0.5376,0.5366,0.5347,0.534,0.5339,0.5319,0.5328,0.5317,0.5302,0.5302,0.5307,0.5348,0.536,0.5382,0.5333,0.5333,0.5333,0,0.5534,0.5521,0.5522,0.5496,0.5492,0.549,0.5474,0.5466,0.5446,0.5434,0.5422,0.5401,0.5395,0.5377,0.5368,0.5361,0.5353,0.5342,0.5342,0.5339,0.5318,0.5344,0.5388,0.5391,0.5337,0.5337,0.5337,0,0.5574,0.5557,0.5554,0.5546,0.5516,0.5515,0.5503,0.5482,0.5474,0.5459,0.5453,0.5438,0.5429,0.5418,0.5392,0.5381,0.5386,0.5365,0.5374,0.5374,0.5375,0.5375,0.5417,0.5373,0.5373,0.5373,0.5373,0,0.5606,0.5607,0.5571,0.557,0.557,0.5542,0.5543,0.5527,0.5509,0.5503,0.5477,0.5471,0.5439,0.543,0.541,0.5405,0.5401,0.539,0.5384,0.5392,0.5393,0.5385,0.5382,0.5374,0.5374,0.5373,0.5373,0,0.5649,0.5626,0.5621,0.5593,0.5586,0.5587,0.5563,0.5559,0.5541,0.5534,0.5531,0.5502,0.5489,0.5463,0.5444,0.543,0.5429,0.542,0.5436,0.5432,0.5442,0.5441,0.548,0.5483,0.5438,0.5438,0.5439,0,0.567,0.567,0.5642,0.5637,0.5625,0.5617,0.5609,0.5582,0.5574,0.5551,0.555,0.5536,0.5523,0.5505,0.5481,0.5466,0.5455,0.547,0.5452,0.5459,0.5453,0.5453,0.5452,0.5473,0.5474,0.5474,0.5475,0,0.5709,0.5698,0.5687,0.5673,0.5664,0.5651,0.5636,0.5633,0.5602,0.5595,0.5582,0.5572,0.5552,0.5538,0.5519,0.5504,0.5484,0.5481,0.5482,0.5488,0.5497,0.549,0.5445,0.548,0.5479,0.5479,0.5478,0.5478,0.5741,0.5739,0.5719,0.5708,0.5695,0.5682,0.5677,0.5659,0.5648,0.563,0.5615,0.5603,0.5582,0.5555,0.5542,0.5532,0.5522,0.5524,0.5524,0.5524,0.5526,0.55,0.5528,0.5528,0.5528,0.5528,0.5528,0,0.5777,0.5763,0.5753,0.5734,0.5725,0.5708,0.5691,0.5684,0.5675,0.5658,0.5646,0.5631,0.5617,0.5593,0.5576,0.5572,0.5563,0.5569,0.5568,0.5565,0.5537,0.5537,0.5577,0.5577,0.5577,0.5577,0.5577,0.5577,0.5795,0.5791,0.5777,0.5766,0.5751,0.574,0.5732,0.5719,0.5706,0.569,0.5679,0.5664,0.5643,0.5625,0.5611,0.5604,0.5598,0.5607,0.5597,0.5571,0.5567,0.5562,0.5562,0.5607,0.5607,0.5625,0.5625,0.5626]},{"header":{"parameterUnit":"m.s-1","parameterCategory":1,"la1":30.2991,"la2":30.254,"lo1":-89.0895,"lo2":-89.0444,"dy":0.0017,"dx":0.0017,"nx":28,"ny":28,"refTime":"2023-10-17T09:00:00:Z","depth":0,"parameterNumber":3,"parameterNumberName":"V-component_of_WINDS"},"data":[0,0,0,0,0,0,0,0,0,0,0,0,0,0,0,0,0,0,0,0,0,0,0,0,0,0,0,0,0,0,0,0,0,0,0,0,0,0,0,0,0,0,0,0,0,0,0,0,0,0,0,0,0,0,0,0,0,0,3.7105,3.7105,0,3.708,3.708,3.708,3.6996,3.6994,3.6992,3.6991,3.6966,3.6967,3.6968,0,0,0,0,0,0,0,0,0,0,0,0,0,3.7081,3.7082,3.7105,3.7105,3.7105,3.708,3.708,3.708,3.6997,3.6994,3.6992,3.699,3.6966,3.6967,3.6968,0,0,0,0,0,0,0,0,0,0,0,0,0,3.7077,3.7082,3.7105,3.706,3.7056,3.708,3.708,3.708,3.6997,3.6994,3.6991,3.6989,3.6965,3.6967,3.6968,3.7035,0,0,3.6973,3.6974,0,0,0,0,0,0,0,0,3.7077,3.7078,3.7067,3.7063,3.7059,3.7038,3.7062,3.7065,3.6998,3.7019,3.6991,3.6987,3.6992,3.6992,3.6993,3.7034,3.7033,3.6974,3.6975,3.6975,3.6976,0,0,0,0,0,0,0,3.7078,3.7079,3.7095,3.7067,3.7062,3.7041,3.7038,3.7062,3.7022,3.7017,3.7011,3.7009,3.699,3.6992,3.6992,3.7032,3.6973,3.6975,3.6976,3.6977,3.7123,3.7126,0,0,0,0,0,0,3.7084,3.708,3.7096,3.7095,3.7061,3.7044,3.704,3.7048,3.7022,3.7015,3.7012,3.7006,3.699,3.699,3.6991,3.7064,3.6975,3.6977,3.6978,3.712,3.7124,3.7127,0,0,0,0,0,0,3.7084,3.7087,3.7097,3.7085,3.7085,3.7047,3.7057,3.7049,3.7051,3.7017,3.701,3.7021,3.6988,3.6988,3.7024,3.7062,3.6977,3.6979,3.7117,3.7121,3.7125,3.7213,0,0,0,0,0,0,3.7084,3.7087,3.7112,3.7087,3.7086,3.7131,3.7059,3.705,3.7054,3.7045,3.7024,3.7018,3.6986,3.7022,3.7025,3.7063,3.698,3.7113,3.7119,3.7124,3.7206,3.722,3.7231,0,0,0,0,0,3.7083,3.7138,3.7114,3.7116,3.7116,3.7133,3.7133,3.7094,3.7057,3.7081,3.706,3.7019,3.7058,3.7026,3.7029,3.7068,3.711,3.7117,3.7124,3.7201,3.7217,3.7231,0,0,0,0,0,0,3.717,3.7134,3.7106,3.7155,3.7148,3.7119,3.7148,3.7113,3.7117,3.7109,3.7061,3.7057,3.7099,3.7087,3.7052,3.713,3.7077,3.7085,3.7135,3.715,3.7162,3.7163,3.6982,0,0,0,0,0,3.7195,3.7211,3.7179,3.7225,3.7223,3.7187,3.7193,3.7164,3.7154,3.7151,3.7132,3.7124,3.7134,3.7142,3.715,3.7206,3.7198,3.7234,3.7246,3.7257,3.7263,3.7288,3.7303,3.7148,3.7148,3.7148,0,0,3.7246,3.7228,3.7242,3.7242,3.7233,3.725,3.7185,3.7207,3.7219,3.7154,3.7185,3.7171,3.716,3.7205,3.7224,3.7196,3.7304,3.7265,3.7273,3.7274,3.7297,3.7311,3.7324,3.7153,3.7152,3.7151,0,0,3.7347,3.7337,3.7372,3.7364,3.7351,3.7326,3.7335,3.7312,3.73,3.7331,3.7282,3.7296,3.7316,3.7309,3.7308,3.7406,3.7368,3.7411,3.7474,3.75,3.7512,3.7523,3.7555,3.7568,3.7418,3.7418,3.7418,0,3.7412,3.7436,3.7395,3.7419,3.742,3.7363,3.7397,3.7392,3.7383,3.7385,3.7355,3.7376,3.7365,3.7406,3.743,3.7433,3.744,3.7411,3.7514,3.7524,3.7533,3.7563,3.7576,3.7423,3.7422,3.7422,3.7421,0,3.7515,3.7533,3.7563,3.7554,3.7559,3.7589,3.7552,3.7562,3.7533,3.7512,3.7543,3.7527,3.753,3.7538,3.7511,3.7575,3.7558,3.7522,3.7468,3.7554,3.7581,3.7593,3.743,3.7428,3.7427,3.7426,0,0,3.7668,3.7636,3.7647,3.7641,3.7623,3.7636,3.7663,3.7665,3.7673,3.7669,3.7689,3.7707,3.7673,3.7672,3.7644,3.7667,3.7742,3.7627,3.7626,3.7646,3.7809,3.7834,3.7849,3.7718,3.772,3.7722,3.7809,0,3.7761,3.7804,3.7768,3.7818,3.7833,3.7779,3.7802,3.7793,3.7774,3.7784,3.7763,3.7775,3.7731,3.773,3.7751,3.7729,3.7774,3.7723,3.7735,3.7736,3.7736,3.7863,3.789,3.7973,3.782,3.7822,3.7823,0,3.7875,3.7875,3.7926,3.7902,3.7907,3.7929,3.7927,3.7938,3.7926,3.7911,3.791,3.7874,3.7899,3.7848,3.788,3.7846,3.7849,3.784,3.7842,3.7839,3.7782,3.7861,3.7999,3.8011,3.784,3.7839,3.7838,0,3.7978,3.7991,3.8022,3.8019,3.7994,3.8009,3.8,3.7985,3.7988,3.7988,3.7989,3.7991,3.7992,3.7994,3.796,3.7927,3.7996,3.7943,3.7982,3.7983,3.7996,3.7995,3.8134,3.8005,3.8004,3.8004,3.8004,0,3.8084,3.8116,3.8067,3.8086,3.8121,3.808,3.8115,3.81,3.8088,3.8102,3.8057,3.8072,3.8028,3.8038,3.8012,3.8041,3.8043,3.803,3.8022,3.8032,3.8033,3.8031,3.8023,3.8007,3.8007,3.8006,3.8005,0,3.8202,3.8171,3.8201,3.8174,3.8168,3.8195,3.8172,3.8188,3.8166,3.8186,3.8188,3.8154,3.8163,3.8131,3.8136,3.8118,3.816,3.8144,3.8163,3.8157,3.8197,3.8192,3.8336,3.8352,3.8216,3.8217,3.8218,0,3.827,3.8294,3.8269,3.8275,3.8268,3.8279,3.8281,3.8242,3.8247,3.8235,3.8253,3.8258,3.826,3.8278,3.8254,3.8257,3.8239,3.8289,3.8239,3.8248,3.8236,3.8234,3.8235,3.8299,3.8301,3.8302,3.8303,0,3.8393,3.8376,3.8382,3.8381,3.8385,3.8384,3.8379,3.8387,3.8344,3.8352,3.8361,3.8362,3.8367,3.8372,3.837,3.836,3.8324,3.832,3.8328,3.8337,3.8346,3.8338,3.8188,3.8316,3.8314,3.8313,3.8313,3.8312,3.8486,3.8504,3.8489,3.8495,3.8488,3.8484,3.8497,3.8477,3.8484,3.8483,3.846,3.8473,3.8461,3.8454,3.8447,3.8456,3.8433,3.8446,3.8449,3.8452,3.8457,3.8347,3.8456,3.8456,3.8456,3.8455,3.8455,0,3.8604,3.8592,3.8599,3.8592,3.8598,3.8565,3.8557,3.8564,3.8575,3.8567,3.8569,3.8579,3.8584,3.8561,3.8563,3.8574,3.8558,3.8576,3.8573,3.8571,3.848,3.8471,3.8589,3.8589,3.8589,3.8589,3.8589,3.8589,3.8665,3.8692,3.8674,3.8696,3.8684,3.8695,3.8694,3.869,3.8682,3.8695,3.8698,3.8683,3.8668,3.8668,3.8671,3.8664,3.8666,3.8689,3.8676,3.8591,3.8577,3.8565,3.8556,3.869,3.869,3.8766,3.8766,3.8767]}]]